UmKA 1 (RS40S)
1 57172U 23091G   26011.59526748  .00006576  00000-0  32017-3 0  9993
2 57172  97.5299  70.9329 0012193 309.7782  50.2377 15.18649522140223
CubeBel-2 (EU11S)
1 57175U 23091K   26011.58652544  .00012916  00000-0  51996-3 0  9991
2 57175  97.5295  73.6883 0009720 312.2309  47.8103 15.24969141140401
RS-38S
1 57189U 23091Z   26011.66220392  .00016565  00000-0  56393-3 0  9997
2 57189  97.5319  78.4746 0006866 268.6511  91.3943 15.30466923140707
SONATE-2
1 59112U 24043Q   26011.62104436  .00030218  00000-0  59753-3 0  9993
2 59112  97.5334 154.0318 0009095  58.4011 301.8125 15.47024609103591
MO-122
1 60209U 24125G   26011.53704545  .00042465  00000-0  79292-3 0  9997
2 60209  97.2501 226.9728 0015751  74.9840 285.3153 15.48516470 85214
GRBBeta
1 60237U 24128C   26011.51830901  .00003893  00000-0  27827-3 0  9994
2 60237  61.9910  45.3538 0055128 102.1839 258.5436 15.05092732 82679
Curium One
1 60242U 24128H   26011.41205688  .00009090  00000-0  55755-3 0  9993
2 60242  61.9804  39.8766 0054859  98.7867 261.9445 15.09508503 82769
ROBUSTA-3A
1 60243U 24128J   26011.42906809  .00009099  00000-0  56853-3 0  9997
2 60243  61.9878  41.4873 0055238  96.2401 264.4989 15.08815191 82740
CatSat
1 60246U 24125J   26011.53059720  .00050599  00000-0  11164-2 0  9996
2 60246  97.2284 223.6415 0033317  40.4110 319.9604 15.43133260 83115
HYPERVIEW-1G (RS66S)
1 61772U 24199AP  26011.64817828  .00046041  00000-0  79461-3 0  9997
2 61772  97.3183 246.5152 0011085 121.0775 239.1567 15.50812976110244
AO-123
1 61781U 24199AY  26011.64689586  .00010916  00000-0  34674-3 0  9994
2 61781  97.3231 241.7808 0015228 143.1258 217.1034 15.32704652109926
ZIMSAT 2
1 61783U 24199BA  26009.19142266  .00678273  19479-3  17950-2 0  9998
2 61783  97.2964 248.8590 0008008 103.0885 257.1284 15.94647359113345
HADES-R (SO-124)
1 62690U 25009CK  26011.49378272  .00408676  00000-0  27356-2 0  9997
2 62690  97.3787 100.5393 0004444 302.1090  57.9743 15.74106351 55433
HYDRA-T
1 62692U 25009CM  26010.46559124  .00406265  00000-0  22973-2 0  9994
2 62692  97.3779  99.7784 0005163 300.6568  59.4190 15.77991172 55294
JINJUSat 1B
1 63210U 25052A   26011.66243570  .00017643  00000-0  65053-3 0  9992
2 63210  97.4186 268.6535 0001887 309.5328  50.5745 15.27857886 46157
NUSHSAT 1
1 63211U 25052B   26011.50446438  .00019884  00000-0  70532-3 0  9991
2 63211  97.4168 268.6627 0001941 322.8060  37.3045 15.29105852 46148
TEVEL2-4
1 63213U 25052D   26011.65020431  .00019077  00000-0  69274-3 0  9995
2 63213  97.4088 268.2955 0002119 357.1202   3.0025 15.28344407 46157
TEVEL2-5
1 63214U 25052E   26011.65724949  .00018684  00000-0  68041-3 0  9995
2 63214  97.4089 268.2857 0002132 356.3394   3.7829 15.28254874 46155
TEVEL2-6
1 63215U 25052F   26011.66546579  .00018655  00000-0  68029-3 0  9992
2 63215  97.4087 268.2820 0002247 355.4430   4.6789 15.28208710 46155
TEVEL2-1
1 63217U 25052H   26011.64930534  .00018512  00000-0  68243-3 0  9990
2 63217  97.4062 268.0504 0002831   5.8747 354.2525 15.27851941 46143
TEVEL2-3
1 63218U 25052J   26011.64803629  .00018631  00000-0  68625-3 0  9991
2 63218  97.4066 268.0560 0002842   6.6120 353.5156 15.27879046 46144
TEVEL2-2
1 63219U 25052K   26011.65003911  .00018452  00000-0  68020-3 0  9999
2 63219  97.4061 268.0517 0002869   6.2921 353.8354 15.27854701 46140
TEVEL2-9
1 63237U 25052AD  26011.64303897  .00017522  00000-0  67695-3 0  9998
2 63237  97.4121 267.7073 0006918 355.1604   4.9567 15.26292126 46105
TEVEL2-7
1 63238U 25052AE  26011.66010623  .00017080  00000-0  66340-3 0  9998
2 63238  97.4127 267.6918 0006926 355.5338   4.5837 15.26118763 46106
TEVEL2-8
1 63239U 25052AF  26011.27282753  .00019699  00000-0  76524-3 0  9994
2 63239  97.4124 267.2910 0006993 357.5748   2.5456 15.26083598 46048
HYDRA-W
1 63490U 25052BL  26011.64758949  .00079274  00000-0  15745-2 0  9991
2 63490  97.4037 270.9605 0006455 356.1492   3.9706 15.46682111 46339
HADES-ICM (SO-125)
1 63492U 25052BN  26011.16788806  .00080803  00000-0  17615-2 0  9993
2 63492  97.4039 270.1041 0007418 358.5767   1.5459 15.43929296 46233
Dragonfly
1 65729U 98067XH  26011.62446474  .00387976  00000-0  13946-2 0  9991
2 65729  51.6225 341.2795 0008244  91.5225 268.6724 15.87118615 17887
RSP-03
1 65732U 98067XL  26011.15226966  .00218742  00000-0  11935-2 0  9995
2 65732  51.6253 345.6628 0006059  70.0166 290.1487 15.78699385 17797
GHS-01
1 65733U 98067XM  26011.16307009  .00851423  33683-3  19087-2 0  9996
2 65733  51.6241 341.9453 0008421 100.3248 259.8711 15.97113039 17849
BOTAN
1 65942U 98067XP  26011.12857632  .00159045  00000-0  12354-2 0  9991
2 65942  51.6270 350.0311 0004755  82.6619 277.4919 15.70749769 14475
CEVROSAT1
1 66309U 25248S   26011.67227585  .00003922  00000-0  19957-3 0  9997
2 66309  45.4033 239.7597 0003540 250.1352 109.9152 15.18566662 10708
BEE-1000
1 66650U 25274A   26011.53490653  .00003270  00000-0  32892-3 0  9997
2 66650  97.7406 303.1822 0012741 147.7007 212.4995 14.91840364  6848
SPIRONE
1 66657U 25274H   26011.37633368  .00002592  00000-0  25664-3 0  9993
2 66657  97.7408 303.0803 0012366 168.1751 191.9762 14.92663003  6826
K-HERO
1 66660U 25274L   26011.36092881  .00003070  00000-0  29904-3 0  9998
2 66660  97.7414 303.1040 0014162 173.4462 186.6946 14.93155137  6825
SNUGLITE-III DURI
1 66661U 25274M   26011.62480127  .00002864  00000-0  27852-3 0  9992
2 66661  97.7412 303.3719 0014779 174.0347 186.1052 14.93276973  6861
SilverSat
1 66909U 98067XV  26011.18083389  .00103438  00000-0  14188-2 0  9993
2 66909  51.6315 355.6383 0003911  48.1318 312.0007 15.56521403  6196
